Previsão horária em Alibaevo

Hoje, 23 Janeiro, Sábado

Tempo Temperatura Precipitação Vento Pressão Humidade
00:00 -19°C° 0 mm 1 m/s 738 mmHg 99%
01:00 -20°C° 0 mm 1 m/s 739 mmHg 99%
02:00 -20°C° 0 mm 1 m/s 739 mmHg 98%
03:00 -21°C° 0 mm 1 m/s 740 mmHg 97%
04:00 -21°C° 0 mm 1 m/s 740 mmHg 96%
05:00 -21°C° 0 mm 1 m/s 741 mmHg 94%
06:00 -21°C° 0 mm 1 m/s 742 mmHg 92%
07:00 -21°C° 0 mm 1 m/s 743 mmHg 90%
08:00 -24°C° 0 mm 2 m/s 744 mmHg 91%
09:00 -23°C° 0 mm 2 m/s 744 mmHg 91%
10:00 -23°C° 0 mm 2 m/s 745 mmHg 92%
11:00 -21°C° 0 mm 2 m/s 745 mmHg 91%
12:00 -20°C° 0 mm 2 m/s 745 mmHg 90%
13:00 -19°C° 0 mm 2 m/s 746 mmHg 89%
14:00 -19°C° 0 mm 2 m/s 746 mmHg 90%
15:00 -19°C° 0 mm 2 m/s 746 mmHg 91%
16:00 -19°C° 0 mm 2 m/s 746 mmHg 91%
17:00 -20°C° 0 mm 2 m/s 746 mmHg 92%
18:00 -20°C° 0 mm 2 m/s 746 mmHg 94%
19:00 -20°C° 0 mm 2 m/s 746 mmHg 95%
20:00 -20°C° 0 mm 2 m/s 746 mmHg 95%
21:00 -20°C° 0 mm 2 m/s 746 mmHg 95%
22:00 -20°C° 0 mm 2 m/s 746 mmHg 96%
23:00 -20°C° 0.1 mm 2 m/s 746 mmHg 96%

Amanhã, 24 Janeiro, Domingo

Tempo Temperatura Precipitação Vento Pressão Humidade
00:00 -19°C° 0.1 mm 2 m/s 746 mmHg 96%
01:00 -19°C° 0.1 mm 2 m/s 746 mmHg 96%
02:00 -17°C° 0.3 mm 2 m/s 744 mmHg 96%
03:00 -16°C° 0.3 mm 2 m/s 744 mmHg 96%
04:00 -16°C° 0.3 mm 2 m/s 743 mmHg 96%
05:00 -15°C° 0.3 mm 2 m/s 743 mmHg 95%
06:00 -14°C° 0.3 mm 2 m/s 743 mmHg 95%
07:00 -13°C° 0.3 mm 2 m/s 743 mmHg 95%
08:00 -10°C° 0.3 mm 2 m/s 743 mmHg 95%
09:00 -9°C° 0.3 mm 2 m/s 743 mmHg 95%
10:00 -7°C° 0.3 mm 2 m/s 743 mmHg 95%
11:00 -6°C° 0.5 mm 3 m/s 744 mmHg 96%
12:00 -4°C° 0.5 mm 4 m/s 744 mmHg 97%
13:00 -2°C° 0.5 mm 5 m/s 744 mmHg 98%
14:00 -4°C° 0.3 mm 5 m/s 744 mmHg 98%
15:00 -4°C° 0.3 mm 5 m/s 744 mmHg 97%
16:00 -4°C° 0.3 mm 5 m/s 744 mmHg 97%
17:00 -3°C° 0.3 mm 4 m/s 744 mmHg 97%
18:00 -3°C° 0.3 mm 4 m/s 744 mmHg 97%
19:00 -4°C° 0.3 mm 4 m/s 745 mmHg 97%
20:00 -4°C° 0.3 mm 4 m/s 745 mmHg 97%
21:00 -4°C° 0.3 mm 4 m/s 745 mmHg 97%
22:00 -2°C° 0.3 mm 3 m/s 745 mmHg 97%
23:00 -4°C° 0.3 mm 3 m/s 746 mmHg 97%

Depois de amanhã, 25 Janeiro, Segunda-feira

Tempo Temperatura Precipitação Vento Pressão Humidade
00:00 -4°C° 0.3 mm 3 m/s 746 mmHg 97%
01:00 -4°C° 0.3 mm 3 m/s 746 mmHg 97%
02:00 -4°C° 0.3 mm 3 m/s 746 mmHg 97%
03:00 -4°C° 0.3 mm 3 m/s 746 mmHg 97%
04:00 -4°C° 0.3 mm 3 m/s 747 mmHg 97%
05:00 -4°C° 0.1 mm 3 m/s 747 mmHg 97%
06:00 -3°C° 0.1 mm 2 m/s 747 mmHg 97%
07:00 -3°C° 0.1 mm 2 m/s 747 mmHg 98%
08:00 -3°C° 0.1 mm 2 m/s 747 mmHg 97%
09:00 -3°C° 0.1 mm 2 m/s 748 mmHg 97%
10:00 -3°C° 0.1 mm 2 m/s 748 mmHg 97%
11:00 -3°C° 0 mm 2 m/s 748 mmHg 97%
12:00 -3°C° 0 mm 2 m/s 748 mmHg 97%
13:00 -3°C° 0 mm 2 m/s 748 mmHg 96%
14:00 -4°C° 0 mm 2 m/s 748 mmHg 97%
15:00 -4°C° 0 mm 2 m/s 748 mmHg 97%
16:00 -4°C° 0 mm 2 m/s 747 mmHg 97%
17:00 -2°C° 0 mm 1 m/s 748 mmHg 97%
18:00 -2°C° 0 mm 1 m/s 748 mmHg 97%
19:00 -3°C° 0 mm 1 m/s 748 mmHg 97%
20:00 -3°C° 0 mm 1 m/s 748 mmHg 97%
21:00 -3°C° 0 mm 1 m/s 748 mmHg 96%
22:00 -2°C° 0 mm 1 m/s 748 mmHg 96%
23:00 -2°C° 0 mm 1 m/s 748 mmHg 96%

26 Janeiro, Terça-feira

Tempo Temperatura Precipitação Vento Pressão Humidade
00:00 -2°C° 0 mm 1 m/s 748 mmHg 97%
01:00 -2°C° 0 mm 1 m/s 747 mmHg 97%
02:00 -3°C° 0 mm 1 m/s 747 mmHg 97%
03:00 -4°C° 0 mm 1 m/s 748 mmHg 97%
04:00 -4°C° 0 mm 1 m/s 748 mmHg 97%
05:00 -4°C° 0 mm 1 m/s 748 mmHg 97%
06:00 -4°C° 0 mm 1 m/s 748 mmHg 97%
07:00 -4°C° 0 mm 1 m/s 748 mmHg 97%
08:00 -6°C° 0 mm 2 m/s 748 mmHg 96%
09:00 -5°C° 0 mm 2 m/s 748 mmHg 96%
10:00 -5°C° 0 mm 2 m/s 748 mmHg 95%
11:00 -5°C° 0 mm 2 m/s 748 mmHg 94%
12:00 -5°C° 0 mm 2 m/s 748 mmHg 94%
13:00 -6°C° 0 mm 3 m/s 748 mmHg 93%
14:00 -6°C° 0 mm 2 m/s 747 mmHg 93%
15:00 -7°C° 0 mm 2 m/s 747 mmHg 93%
16:00 -6°C° 0 mm 1 m/s 747 mmHg 92%
17:00 -8°C° 0 mm 1 m/s 747 mmHg 91%
18:00 -9°C° 0 mm 1 m/s 747 mmHg 89%
19:00 -10°C° 0 mm 1 m/s 747 mmHg 87%
20:00 -10°C° 0 mm 1 m/s 747 mmHg 86%
21:00 -10°C° 0 mm 1 m/s 747 mmHg 85%
22:00 -11°C° 0 mm 1 m/s 747 mmHg 85%
23:00 -11°C° 0 mm 1 m/s 747 mmHg 84%

27 Janeiro, Quarta-feira

Tempo Temperatura Precipitação Vento Pressão Humidade
00:00 -11°C° 0 mm 1 m/s 747 mmHg 84%
01:00 -11°C° 0 mm 1 m/s 747 mmHg 84%
02:00 -11°C° 0 mm 1 m/s 747 mmHg 84%
03:00 -12°C° 0 mm 1 m/s 747 mmHg 84%
04:00 -12°C° 0 mm 1 m/s 747 mmHg 83%
05:00 -12°C° 0 mm 1 m/s 747 mmHg 84%
06:00 -12°C° 0 mm 1 m/s 747 mmHg 84%
07:00 -14°C° 0 mm 2 m/s 747 mmHg 84%
08:00 -13°C° 0 mm 2 m/s 747 mmHg 85%
09:00 -12°C° 0 mm 2 m/s 747 mmHg 86%
10:00 -10°C° 0 mm 2 m/s 747 mmHg 87%
11:00 -9°C° 0 mm 2 m/s 747 mmHg 87%
12:00 -7°C° 0 mm 2 m/s 747 mmHg 86%
13:00 -6°C° 0 mm 2 m/s 747 mmHg 86%
14:00 -7°C° 0 mm 2 m/s 747 mmHg 87%
15:00 -7°C° 0 mm 2 m/s 746 mmHg 88%
16:00 -8°C° 0 mm 2 m/s 746 mmHg 88%
17:00 -8°C° 0 mm 2 m/s 746 mmHg 88%
18:00 -9°C° 0 mm 2 m/s 746 mmHg 87%
19:00 -10°C° 0 mm 2 m/s 746 mmHg 87%
20:00 -10°C° 0 mm 2 m/s 746 mmHg 87%
21:00 -10°C° 0 mm 2 m/s 746 mmHg 86%
22:00 -10°C° 0 mm 2 m/s 746 mmHg 86%
23:00 -10°C° 0 mm 2 m/s 745 mmHg 86%

28 Janeiro, Quinta-feira

Tempo Temperatura Precipitação Vento Pressão Humidade
00:00 -10°C° 0 mm 2 m/s 745 mmHg 85%
01:00 -10°C° 0 mm 2 m/s 745 mmHg 85%
02:00 -10°C° 0 mm 2 m/s 745 mmHg 85%
03:00 -10°C° 0 mm 2 m/s 745 mmHg 85%
04:00 -10°C° 0 mm 2 m/s 744 mmHg 84%
05:00 -10°C° 0 mm 2 m/s 744 mmHg 84%
06:00 -12°C° 0 mm 3 m/s 744 mmHg 83%
07:00 -12°C° 0 mm 3 m/s 743 mmHg 83%
08:00 -10°C° 0 mm 3 m/s 743 mmHg 82%
09:00 -11°C° 0 mm 4 m/s 743 mmHg 82%
10:00 -10°C° 0 mm 4 m/s 743 mmHg 82%
11:00 -11°C° 0 mm 5 m/s 742 mmHg 82%
12:00 -10°C° 0 mm 6 m/s 742 mmHg 81%
13:00 -9°C° 0 mm 7 m/s 741 mmHg 80%
14:00 -9°C° 0 mm 7 m/s 741 mmHg 80%
15:00 -9°C° 0 mm 7 m/s 740 mmHg 81%
16:00 -10°C° 0 mm 8 m/s 739 mmHg 81%
17:00 -11°C° 0 mm 8 m/s 739 mmHg 80%
18:00 -11°C° 0 mm 7 m/s 739 mmHg 80%
19:00 -11°C° 0 mm 7 m/s 738 mmHg 80%
20:00 -12°C° 0 mm 8 m/s 738 mmHg 81%
21:00 -12°C° 0 mm 8 m/s 737 mmHg 81%
22:00 -12°C° 0 mm 8 m/s 737 mmHg 81%
Mostrar mais

Necessitamos do seu Consentimento

A Meteoprog e os seus Fornecedores de Serviços podem armazenar e aceder a dados pessoais como cookies, identificadores do dispositivo ou outras tecnologias semelhantes existentes no seu dispositivo e processar estes dados para personalizar conteúdos e anúncios, assim como funcionalidades nas redes sociais e análise de tráfego.

  • Armazenar e/ou aceder a informações no seu dispositivo

    Os cookies, identificadores do dispositivo ou outras informações podem ser armazenados ou acedidos no seu dispositivo, para os fins acima indicados.

  • Anúncios e conteúdos personalizados, medição de anúncios e conteúdos, dados sobre o público-alvo e desenvolvimento de produtos

    Os anúncios e os conteúdos podem ser personalizados com base num perfil. Podem ser adicionados dados adicionais para uma maior personalização dos anúncios e dos conteúdos. A eficácia dos anúncios e dos conteúdos pode ser medida. Podem ser obtidas informações sobre o público que visualizou os anúncios e os conteúdos. Estes dados podem ser usados para desenvolver ou melhorar sistemas, softwares ou a experiência do utilizador.

Ao clicar em "Eu concordo”, permitirá o uso de cookies, identificadores do dispositivo e web beacons mencionados ou outras tecnologias semelhantes. As configurações do navegador do seu dispositivo podem ser alteradas.

Para certos fins, podem ser invocados interesses legítimos ao invés de consentimento. Pode ler mais informação sobre este assunto na nossa Política de Privacidade e Cookies.